BEARDSLEY LAKE (BRD)

Elevation: 3398' · STANISLAUS R basin · Operator: Oakdale South San Joaquin Irrigation District

Provisional data, subject to change.
Query executed Tuesday at 20:33:56   clock

Select a sensor type for a plot of data.
Note: Reservoir Flows are daily averages.

Earlier

Date STORAGE    RES CHG    OUTFLOW    PPT INC   
 AF   AF   CFS   INCHES  
05/01/2016 82582 -256 1123 0.00
05/02/2016 82313 -269 1125 0.00
05/03/2016 82119 -194 1120 0.00
05/04/2016 81991 -128 1117 0.00
05/05/2016 81843 -148 1110 0.00
05/06/2016 81669 -174 1107 0.00
05/07/2016 81502 -167 1111 0.41
05/08/2016 81248 -254 1103 0.24
05/09/2016 81308 60 991 0.00
05/10/2016 82541 1233 928 0.00
05/11/2016 84446 1905 946 0.00
05/12/2016 86772 2326 959 0.00
05/13/2016 88134 1362 1809 0.00
05/14/2016 88411 277 2672 0.00
05/15/2016 88147 -264 2816 0.00
05/16/2016 87521 -626 2642 0.00
05/17/2016 87280 -241 2291 0.00
05/18/2016 87562 282 2038 0.00
05/19/2016 88259 697 1936 0.00
05/20/2016 89110 851 1993 0.00
05/21/2016 88860 -- 2060 0.01
05/22/2016 88438 -- 1698 0.15
05/23/2016 88701 263 1106 0.00
05/24/2016 89367 666 861 0.01
05/25/2016 89874 507 867 0.32
05/26/2016 90271 397 866 0.84
05/27/2016 90675 404 925 0.00
05/28/2016 91312 637 1000 0.00
05/29/2016 91950 638 1127 0.00
05/30/2016 92534 584 1275 0.00
05/31/2016 -- -- -- --

Later | Latest

Warning! This data is preliminary and subject to revision.

Show BRD Map | Plot BRD Data | 1 Month BRD Data | Real-Time BRD Data | BRD Info